Location: Liscomb Game Sanctuary
(45.1633°N, 62.5575°W)
Time: 13:06:56
(UTC-03:00)

Amateur Radio Satellites - All Passes

Search period start: 29 June 2017 12:36
Search period end: 30 June 2017 12:36
Location: Liscomb Game Sanctuary, 45.1633°N, 62.5575°W

Satellite Date Start Highest point End Downlink Frequencies (MHz)
Time Altitude Azimuth
Oscar 19 29 Jun 12:37:01 12:41:00 23° 62° (ENE) 12:44:59 437.125/150
EO-79 29 Jun 12:43:47 12:47:45 38° 262° (W) 12:51:47 145.935-145.965
ISS 29 Jun 12:45:29 12:48:41 46° 22° (NNE) 12:51:53 437.550
ESTCUBE 1 29 Jun 12:52:25 12:56:55 90° 34° (NE) 13:01:25 437.505/2401.250
DUCHIFAT 1 29 Jun 12:52:35 12:56:32 38° 262° (W) 13:00:32 145.980
NANOSAT C BR1 29 Jun 13:03:59 13:07:34 26° 265° (W) 13:11:12 145.865
Tancredo 1 29 Jun 13:11:30 13:14:32 65° 212° (SSW) 13:17:33 437.200
AO-7 29 Jun 13:22:35 13:27:42 18° 43° (NE) 13:32:50 .
LO-87 29 Jun 13:22:54 13:25:35 20° 293° (WNW) 13:28:15 145.935 - 145.965
SO-50 29 Jun 13:26:15 13:30:17 32° 116° (ESE) 13:34:19 436.795
BUGSAT 1 29 Jun 13:45:26 13:49:12 33° 263° (W) 13:53:02 437.445
PCSat 29 Jun 13:51:09 13:55:13 21° 321° (NW) 13:59:18 145.827
SPROUT 29 Jun 13:59:50 14:04:07 64° 286° (WNW) 14:08:22 437.525
Gurwin Techsat 1B 29 Jun 14:03:11 14:08:30 81° 74° (ENE) 14:13:50 435.225
50 SAT 29 Jun 14:06:08 14:09:33 68° 102° (ESE) 14:12:57 437.505
VELOX 1 29 Jun 14:11:38 14:16:00 56° 288° (WNW) 14:20:20 145.980
Oscar 19 29 Jun 14:14:59 14:20:00 51° 260° (W) 14:25:01 437.125/150
DX 1 29 Jun 14:17:02 14:21:21 56° 101° (E) 14:25:40 434.975-435.025
ISS 29 Jun 14:22:06 14:25:06 32° 219° (SW) 14:28:06 437.550
UKube-1 29 Jun 14:25:15 14:29:26 46° 100° (E) 14:33:36 .
ESTCUBE 1 29 Jun 14:31:34 14:33:01 11° 302° (WNW) 14:34:29 437.505/2401.250
ITAMSAT 1 29 Jun 15:02:01 15:06:51 40° 67° (ENE) 15:11:42 435.822/435.867
SO-50 29 Jun 15:06:28 15:10:41 36° 315° (NW) 15:14:54 436.795
AO-7 29 Jun 15:10:45 15:18:56 66° 65° (ENE) 15:27:12 .
Gurwin Techsat 1B 29 Jun 15:46:19 15:49:05 14° 272° (W) 15:51:51 435.225
ITUPSAT 1 29 Jun 15:48:45 15:53:08 35° 97° (E) 15:57:29 437.325
DX 1 29 Jun 15:54:20 15:57:07 17° 298° (WNW) 15:59:54 434.975-435.025
BEESAT 29 Jun 15:55:38 16:00:11 41° 99° (E) 16:04:40 436.000
UKube-1 29 Jun 16:02:03 16:05:08 19° 297° (WNW) 16:08:13 .
MOZHAYETS 4 29 Jun 16:24:42 16:29:13 55° 100° (E) 16:33:41
CUTE-I 29 Jun 16:41:48 16:42:38 10° 52° (NE) 16:43:28 437.470
ITAMSAT 1 29 Jun 16:41:56 16:46:24 29° 265° (W) 16:50:56 435.822/435.867
AO-7 29 Jun 17:05:06 17:12:14 31° 265° (W) 17:19:26 .
XW-2F 29 Jun 17:17:08 17:19:05 14° 63° (ENE) 17:21:01 145.980 - 146.000
CUBESAT XI-V 29 Jun 17:17:36 17:21:54 38° 97° (E) 17:26:10 437.345
XW-2D 29 Jun 17:23:40 17:26:13 17° 65° (ENE) 17:28:45 145.860 - 145.880
KKS-1 29 Jun 17:26:18 17:30:16 30° 96° (E) 17:34:12 437.445
ITUPSAT 1 29 Jun 17:26:45 17:30:51 29° 295° (WNW) 17:34:57 437.325
XW-2B 29 Jun 17:32:25 17:35:17 20° 66° (ENE) 17:38:10 145.730 - 145.750
BEESAT 29 Jun 17:33:51 17:37:44 25° 296° (WNW) 17:41:35 436.000
LilacSat-2 29 Jun 17:36:49 17:39:58 24° 68° (ENE) 17:43:06 437.200
STARS 29 Jun 17:43:49 17:47:06 20° 93° (E) 17:50:22 437.465
DOVE 4 29 Jun 17:47:29 17:51:39 70° 74° (ENE) 17:56:04 437.250
XW-2C 29 Jun 17:47:34 17:50:56 30° 69° (ENE) 17:54:17 145.795 - 145.815
KAITUO 1B 29 Jun 17:50:40 17:53:47 25° 68° (ENE) 17:56:54 145.475/437.950
MOZHAYETS 4 29 Jun 18:02:52 18:05:57 18° 298° (WNW) 18:09:01
CUTE-I 29 Jun 18:16:22 18:21:37 62° 71° (ENE) 18:26:56 437.470
HO-68 29 Jun 18:18:10 18:24:15 31° 58° (ENE) 18:30:21 435.675
NUDT-PHONESAT 29 Jun 18:19:09 18:22:48 52° 74° (ENE) 18:26:28 437.300
CUTE 1.7 + AOD 2 29 Jun 18:26:36 18:29:08 16° 63° (ENE) 18:31:41 437.475
XW-2F 29 Jun 18:49:03 18:52:47 53° 260° (W) 18:56:31 145.980 - 146.000
CUBESAT XI-V 29 Jun 18:55:21 18:59:05 25° 295° (WNW) 19:02:48 437.345
XW-2D 29 Jun 18:56:29 19:00:06 40° 262° (W) 19:03:44 145.860 - 145.880
KKS-1 29 Jun 19:02:52 19:06:46 30° 293° (WNW) 19:10:40 437.445
AO-85 29 Jun 19:03:23 19:05:16 13° 111° (ESE) 19:07:09 145.980
XW-2B 29 Jun 19:05:49 19:09:17 32° 263° (W) 19:12:46 145.730 - 145.750
PCSat 29 Jun 19:08:53 19:13:04 22° 40° (NE) 19:17:13 145.827
LilacSat-2 29 Jun 19:10:49 19:14:09 27° 265° (W) 19:17:29 437.200
STARS 29 Jun 19:19:24 19:23:38 43° 290° (WNW) 19:27:50 437.465
XW-2C 29 Jun 19:22:08 19:25:08 22° 266° (W) 19:28:09 145.795 - 145.815
CUBEBUG 2 29 Jun 19:23:07 19:27:17 33° 68° (ENE) 19:31:32 437.445
KAITUO 1B 29 Jun 19:24:34 19:27:43 25° 265° (W) 19:30:53 145.475/437.950
DOVE 4 29 Jun 19:28:35 19:29:58 11° 273° (W) 19:31:21 437.250
XW-2A 29 Jun 19:31:03 19:34:22 47° 73° (ENE) 19:37:43 145.665 - 145.685
ZACube-1 29 Jun 19:33:16 19:36:04 16° 62° (ENE) 19:38:52 437.345
BEESAT 3 29 Jun 19:33:45 19:36:19 17° 111° (ESE) 19:38:54 437.485
SEEDS 29 Jun 19:34:07 19:38:09 48° 72° (ENE) 19:42:11 437.485
STRAND 1 29 Jun 19:41:23 19:45:18 21° 92° (E) 19:49:11 437.568
RS-15 29 Jun 19:46:16 19:56:46 36° 105° (ESE) 20:07:24 29.354- 29.394
UWE-3 29 Jun 19:47:04 19:51:16 35° 69° (ENE) 19:55:32 435.000/436.395/437.385
NUDT-PHONESAT 29 Jun 19:55:26 19:57:01 12° 270° (W) 19:58:35 437.300
CUTE-I 29 Jun 19:58:24 20:02:07 19° 269° (W) 20:05:51 437.470
CUTE 1.7 + AOD 2 29 Jun 20:00:22 20:04:33 56° 260° (W) 20:08:43 437.475
NO-84 29 Jun 20:03:55 20:06:30 18° 126° (SE) 20:09:12 435.350 FM
HO-68 29 Jun 20:04:27 20:11:33 61° 258° (WSW) 20:18:42 435.675
AAUSAT CUBESAT 2 29 Jun 20:11:09 20:15:10 57° 74° (ENE) 20:19:14 437.432
SO-50 29 Jun 20:15:58 20:17:57 13° 28° (NNE) 20:19:56 436.795
AO-73 29 Jun 20:29:32 20:33:56 48° 72° (ENE) 20:38:21 145.935
AO-85 29 Jun 20:41:10 20:45:10 64° 308° (NW) 20:49:05 145.980
BEESAT 2 29 Jun 20:42:13 20:45:43 30° 116° (ESE) 20:49:16 435.950
Oscar 11 29 Jun 20:51:14 20:55:31 62° 74° (ENE) 20:59:49 .
PCSat 29 Jun 20:51:39 20:57:06 80° 241° (WSW) 21:02:31 145.827
DELFI C3 29 Jun 20:56:56 20:59:41 19° 65° (ENE) 21:02:27 145.870
CUBEBUG 2 29 Jun 20:59:49 21:03:53 29° 266° (W) 21:08:02 437.445
XW-2A 29 Jun 21:06:20 21:07:23 11° 270° (W) 21:08:27 145.665 - 145.685
YUBILEINY 29 Jun 21:06:54 21:14:28 34° 83° (E) 21:22:02 435.215
ZACube-1 29 Jun 21:07:17 21:11:49 64° 259° (W) 21:16:25 437.345
BEESAT 3 29 Jun 21:09:35 21:13:29 53° 309° (NW) 21:17:28 437.485
SEEDS 29 Jun 21:11:29 21:14:06 16° 269° (W) 21:16:43 437.485
STRAND 1 29 Jun 21:19:46 21:24:47 52° 290° (WNW) 21:29:45 437.568
UWE-3 29 Jun 21:23:50 21:27:46 27° 266° (W) 21:31:45 435.000/436.395/437.385
O/OREOS (USA 219) 29 Jun 21:29:47 21:34:19 86° 116° (ESE) 21:38:52 437.305
NO-84 29 Jun 21:39:40 21:43:34 75° 326° (NNW) 21:47:46 435.350 FM
AAUSAT CUBESAT 2 29 Jun 21:49:02 21:51:01 13° 271° (W) 21:52:58 437.432
SO-50 29 Jun 21:55:00 21:59:27 52° 50° (NE) 22:03:53 436.795
RS-15 29 Jun 21:56:02 22:08:18 76° 309° (NW) 22:20:45 29.354- 29.394
HO-68 29 Jun 22:00:21 22:00:43 10° 277° (W) 22:01:05 435.675
AO-73 29 Jun 22:07:09 22:10:24 19° 269° (W) 22:13:41 145.935
FO-29 29 Jun 22:17:01 22:24:25 42° 95° (E) 22:31:33 435.910
EO-88 29 Jun 22:19:18 22:22:57 75° 257° (WSW) 22:26:39 145.990 - 145.960
ESTCUBE 1 29 Jun 22:19:48 22:21:51 13° 59° (ENE) 22:23:53 437.505/2401.250
BEESAT 2 29 Jun 22:19:49 22:23:25 31° 315° (NW) 22:27:05 435.950
AO-85 29 Jun 22:24:57 22:26:20 11° 328° (NNW) 22:27:43 145.980
UNISAT 6 29 Jun 22:25:44 22:29:33 25° 93° (E) 22:33:18 437.425
LO-87 29 Jun 22:27:38 22:30:06 18° 66° (ENE) 22:32:36 145.935 - 145.965
Oscar 11 29 Jun 22:29:53 22:32:04 13° 271° (W) 22:34:13 .
DELFI C3 29 Jun 22:30:32 22:34:12 38° 262° (W) 22:37:53 145.870
M-CUBED/EXP-1 PRIME 29 Jun 22:33:34 22:36:58 29° 103° (ESE) 22:40:35 437.505
PCSat 29 Jun 22:37:45 22:39:34 12° 258° (WSW) 22:41:23 145.827
BEESAT 3 29 Jun 22:50:53 22:52:00 11° 330° (NNW) 22:53:06 437.485
YUBILEINY 29 Jun 23:02:07 23:10:46 59° 284° (WNW) 23:19:31 435.215
O/OREOS (USA 219) 29 Jun 23:12:00 23:14:23 14° 313° (NW) 23:16:46 437.305
TIGRISAT 29 Jun 23:18:11 23:22:51 78° 102° (ESE) 23:27:22 435.000
NO-84 29 Jun 23:18:15 23:21:43 26° 346° (NNW) 23:25:21 435.350 FM
PRISM 29 Jun 23:20:13 23:24:21 86° 99° (E) 23:28:30 437.425
SPROUT 29 Jun 23:21:16 23:23:30 14° 61° (ENE) 23:25:44 437.525
VELOX 1 29 Jun 23:35:42 23:38:44 19° 63° (ENE) 23:41:46 145.980
SO-50 29 Jun 23:36:10 23:39:34 21° 247° (WSW) 23:42:58 436.795
ESTCUBE 1 29 Jun 23:53:31 23:58:01 79° 257° (WSW) 00:02:32 437.505/2401.250
POLYITAN 1 29 Jun 23:53:47 23:55:45 13° 89° (E) 23:57:43 437.675
LO-87 30 Jun 00:00:04 00:03:18 32° 263° (W) 00:06:35 145.935 - 145.965
FO-29 30 Jun 00:01:59 00:09:26 49° 294° (WNW) 00:16:46 435.910
UNISAT 6 30 Jun 00:02:05 00:06:21 37° 291° (WNW) 00:10:30 437.425
QB50P2 30 Jun 00:04:05 00:07:04 18° 92° (E) 00:10:02 145.880/145.840
M-CUBED/EXP-1 PRIME 30 Jun 00:08:08 00:11:20 26° 297° (WNW) 00:14:43 437.505
RS-15 30 Jun 00:12:11 00:23:12 36° 338° (NNW) 00:34:13 29.354- 29.394
EO-79 30 Jun 00:26:16 00:30:00 28° 96° (E) 00:33:40 145.935-145.965
DUCHIFAT 1 30 Jun 00:34:24 00:38:05 28° 95° (E) 00:41:43 145.980
50 SAT 30 Jun 00:39:48 00:42:49 31° 70° (ENE) 00:45:52 437.505
AIST 2D 30 Jun 00:39:50 00:43:22 85° 283° (WNW) 00:46:50 435.315
NANOSAT C BR1 30 Jun 00:45:23 00:49:26 40° 98° (E) 00:53:26 145.865
SPROUT 30 Jun 00:54:37 00:58:52 67° 259° (WSW) 01:03:10 437.525
TIGRISAT 30 Jun 00:56:33 00:58:53 14° 301° (WNW) 01:01:10 435.000
NO-84 30 Jun 00:56:58 01:00:22 22° 7° (N) 01:03:51 435.350 FM
PRISM 30 Jun 00:58:13 00:58:59 10° 301° (WNW) 00:59:45 437.425
YUBILEINY 30 Jun 01:05:51 01:09:52 14° 309° (NW) 01:13:54 435.215
VELOX 1 30 Jun 01:10:35 01:14:49 49° 260° (W) 01:19:06 145.980
DX 1 30 Jun 01:14:10 01:18:26 62° 73° (ENE) 01:22:44 434.975-435.025
UKube-1 30 Jun 01:21:19 01:25:28 50° 71° (ENE) 01:29:40 .
BUGSAT 1 30 Jun 01:24:48 01:28:34 30° 96° (E) 01:32:16 437.445
POLYITAN 1 30 Jun 01:27:43 01:31:57 63° 287° (WNW) 01:36:10 437.675
QB50P2 30 Jun 01:38:59 01:43:04 44° 289° (WNW) 01:47:07 145.880/145.840
FO-29 30 Jun 01:49:43 01:52:39 13° 314° (NW) 01:55:37 435.910
EO-79 30 Jun 02:02:01 02:05:42 29° 293° (WNW) 02:09:22 145.935-145.965
DUCHIFAT 1 30 Jun 02:10:01 02:13:42 29° 293° (WNW) 02:17:20 145.980
50 SAT 30 Jun 02:13:37 02:15:42 15° 267° (W) 02:17:49 437.505
Gurwin Techsat 1B 30 Jun 02:17:47 02:22:16 27° 94° (E) 02:26:44 435.225
NANOSAT C BR1 30 Jun 02:21:42 02:24:53 21° 296° (WNW) 02:28:02 145.865
Oscar 19 30 Jun 02:24:14 02:29:11 47° 99° (E) 02:34:07 437.125/150
RS-15 30 Jun 02:29:45 02:40:25 32° 13° (NNE) 02:50:47 29.354- 29.394
NO-84 30 Jun 02:34:37 02:38:48 44° 28° (NNE) 02:43:00 435.350 FM
DX 1 30 Jun 02:52:54 02:55:02 13° 270° (W) 02:57:11 434.975-435.025
ITUPSAT 1 30 Jun 02:57:07 03:01:47 51° 71° (ENE) 03:06:27 437.325
UKube-1 30 Jun 02:59:04 03:01:48 16° 268° (W) 03:04:32 .
BUGSAT 1 30 Jun 03:00:14 03:03:49 27° 293° (WNW) 03:07:23 437.445
BEESAT 30 Jun 03:03:40 03:08:22 61° 72° (ENE) 03:13:07 436.000
AO-7 30 Jun 03:11:48 03:16:52 17° 88° (E) 03:21:54 .
ITAMSAT 1 30 Jun 03:15:04 03:16:38 11° 87° (E) 03:18:11 435.822/435.867
MOZHAYETS 4 30 Jun 03:28:05 03:32:41 67° 74° (ENE) 03:37:18
AO-85 30 Jun 03:29:58 03:33:24 25° 43° (NE) 03:36:57 145.980
BEESAT 3 30 Jun 03:47:21 03:50:36 23° 41° (NE) 03:53:49 437.485
Gurwin Techsat 1B 30 Jun 03:57:20 04:02:22 44° 292° (WNW) 04:07:23 435.225
Oscar 19 30 Jun 04:04:07 04:08:14 25° 297° (WNW) 04:12:20 437.125/150
NO-84 30 Jun 04:12:17 04:16:25 41° 226° (SW) 04:20:30 435.350 FM
CUBESAT XI-V 30 Jun 04:22:33 04:26:59 47° 71° (ENE) 04:31:24 437.345
KKS-1 30 Jun 04:26:05 04:30:06 35° 68° (ENE) 04:34:11 437.445
ITUPSAT 1 30 Jun 04:36:26 04:39:53 20° 268° (W) 04:43:22 437.325
STARS 30 Jun 04:42:13 04:45:43 24° 65° (ENE) 04:49:14 437.465
BEESAT 30 Jun 04:43:31 04:46:32 16° 269° (W) 04:49:35 436.000
RS-15 30 Jun 04:43:58 04:56:07 61° 44° (NE) 05:07:40 29.354- 29.394
ITAMSAT 1 30 Jun 04:51:35 04:56:52 85° 105° (ESE) 05:02:06 435.822/435.867
BEESAT 2 30 Jun 04:57:30 05:01:19 37° 47° (NE) 05:05:06 435.950
AO-7 30 Jun 05:02:28 05:10:55 80° 108° (ESE) 05:19:17 .
MOZHAYETS 4 30 Jun 05:07:50 05:10:18 14° 271° (W) 05:12:45
AO-85 30 Jun 05:10:00 05:13:54 42° 241° (WSW) 05:18:03 145.980
BEESAT 3 30 Jun 05:24:32 05:28:23 46° 241° (WSW) 05:32:11 437.485
DOVE 4 30 Jun 05:44:08 05:47:43 19° 91° (E) 05:51:24 437.250
O/OREOS (USA 219) 30 Jun 05:58:56 06:02:47 27° 56° (NE) 06:06:37 437.305
CUBESAT XI-V 30 Jun 06:01:13 06:04:35 20° 268° (W) 06:07:58 437.345
KKS-1 30 Jun 06:03:07 06:06:44 24° 265° (W) 06:10:24 437.445
STARS 30 Jun 06:17:47 06:21:51 37° 262° (W) 06:25:59 437.465
XW-2F 30 Jun 06:20:30 06:22:20 13° 90° (E) 06:24:08 145.980 - 146.000
XW-2D 30 Jun 06:27:34 06:30:07 17° 92° (E) 06:32:39 145.860 - 145.880
CUTE-I 30 Jun 06:32:02 06:36:05 21° 92° (E) 06:40:05 437.470
ITAMSAT 1 30 Jun 06:32:39 06:35:37 16° 303° (WNW) 06:38:36 435.822/435.867
BEESAT 2 30 Jun 06:35:35 06:38:55 25° 246° (WSW) 06:42:14 435.950
XW-2B 30 Jun 06:36:27 06:39:21 21° 94° (E) 06:42:13 145.730 - 145.750
LilacSat-2 30 Jun 06:41:42 06:44:54 25° 95° (E) 06:48:04 437.200
XW-2C 30 Jun 06:51:50 06:55:14 31° 97° (E) 06:58:36 145.795 - 145.815
KAITUO 1B 30 Jun 06:53:18 06:56:25 25° 95° (E) 06:59:30 145.475/437.950
AO-7 30 Jun 06:56:07 07:02:53 29° 308° (NW) 07:09:38 .
RS-15 30 Jun 06:57:04 07:08:23 49° 250° (WSW) 07:19:11 29.354- 29.394
STRAND 1 30 Jun 06:58:54 07:03:37 38° 67° (ENE) 07:08:21 437.568
ISS 30 Jun 07:03:22 07:06:03 24° 138° (SE) 07:08:46 437.550
YUBILEINY 30 Jun 07:14:07 07:20:01 19° 57° (ENE) 07:25:51 435.215
Tancredo 1 30 Jun 07:18:04 07:21:03 64° 146° (SSE) 07:24:03 437.200
DOVE 4 30 Jun 07:20:47 07:25:42 59° 288° (WNW) 07:30:49 437.250
NUDT-PHONESAT 30 Jun 07:21:10 07:24:49 54° 100° (E) 07:28:24 437.300
HO-68 30 Jun 07:30:32 07:36:11 24° 92° (E) 07:41:48 435.675
O/OREOS (USA 219) 30 Jun 07:38:11 07:42:14 34° 254° (WSW) 07:46:15 437.305
CUTE 1.7 + AOD 2 30 Jun 07:43:38 07:46:51 21° 93° (E) 07:50:03 437.475
XW-2F 30 Jun 07:53:08 07:56:44 47° 288° (WNW) 08:00:19 145.980 - 146.000
XW-2D 30 Jun 08:00:59 08:04:27 35° 289° (WNW) 08:07:52 145.860 - 145.880
XW-2B 30 Jun 08:10:16 08:13:34 29° 291° (WNW) 08:16:50 145.730 - 145.750
CUTE-I 30 Jun 08:11:12 08:16:28 57° 290° (WNW) 08:21:43 437.470
LilacSat-2 30 Jun 08:16:00 08:19:06 24° 292° (WNW) 08:22:11 437.200
XW-2A 30 Jun 08:23:28 08:26:39 36° 98° (E) 08:29:48 145.665 - 145.685
XW-2C 30 Jun 08:26:27 08:29:14 20° 294° (WNW) 08:32:01 145.795 - 145.815
KAITUO 1B 30 Jun 08:27:20 08:30:20 24° 292° (WNW) 08:33:20 145.475/437.950
FO-29 30 Jun 08:32:26 08:37:25 23° 55° (NE) 08:42:48 435.910
STRAND 1 30 Jun 08:38:22 08:42:51 30° 265° (W) 08:47:22 437.568
ISS 30 Jun 08:39:07 08:42:21 56° 336° (NNW) 08:45:36 437.550
TIGRISAT 30 Jun 08:45:17 08:46:52 12° 57° (ENE) 08:48:26 435.000
CUBEBUG 2 30 Jun 08:47:53 08:52:30 54° 99° (E) 08:56:57 437.445
SEEDS 30 Jun 08:51:04 08:55:14 73° 101° (E) 08:59:22 437.485
Tancredo 1 30 Jun 08:54:04 08:56:47 30° 345° (NNW) 08:59:32 437.200
ZACube-1 30 Jun 08:54:18 08:57:43 22° 92° (E) 09:01:03 437.345
NUDT-PHONESAT 30 Jun 08:56:38 08:58:15 12° 297° (WNW) 08:59:52 437.300
YUBILEINY 30 Jun 09:09:33 09:18:27 79° 81° (E) 09:27:14 435.215
UWE-3 30 Jun 09:10:35 09:15:05 56° 100° (E) 09:19:25 435.000/436.395/437.385
HO-68 30 Jun 09:17:22 09:24:30 70° 291° (WNW) 09:31:36 435.675
CUTE 1.7 + AOD 2 30 Jun 09:18:56 09:22:49 36° 290° (WNW) 09:26:40 437.475
M-CUBED/EXP-1 PRIME 30 Jun 09:21:49 09:24:57 45° 67° (ENE) 09:28:07 437.505
UNISAT 6 30 Jun 09:26:04 09:30:05 29° 66° (ENE) 09:34:08 437.425
AAUSAT CUBESAT 2 30 Jun 09:26:14 09:30:22 83° 102° (ESE) 09:34:29 437.432
AO-73 30 Jun 09:51:28 09:55:54 77° 101° (ESE) 10:00:11 145.935
XW-2A 30 Jun 09:57:10 09:59:05 14° 295° (WNW) 10:01:00 145.665 - 145.685
DELFI C3 30 Jun 10:05:34 10:08:40 22° 94° (E) 10:11:45 145.870
PRISM 30 Jun 10:11:02 10:15:04 79° 75° (ENE) 10:19:09 437.425
Oscar 11 30 Jun 10:12:14 10:16:34 83° 281° (WNW) 10:20:51 .
FO-29 30 Jun 10:15:11 10:21:32 80° 257° (WSW) 10:28:49 435.910
ISS 30 Jun 10:16:27 10:19:17 26° 355° (N) 10:22:08 437.550
TIGRISAT 30 Jun 10:18:06 10:22:45 84° 73° (ENE) 10:27:29 435.000
CUBEBUG 2 30 Jun 10:25:26 10:28:40 19° 298° (WNW) 10:31:51 437.445
SEEDS 30 Jun 10:28:40 10:30:21 12° 299° (WNW) 10:32:02 437.485
ZACube-1 30 Jun 10:30:01 10:34:09 39° 290° (WNW) 10:38:10 437.345
Tancredo 1 30 Jun 10:30:24 10:32:56 24° 5° (N) 10:35:29 437.200
UWE-3 30 Jun 10:48:05 10:51:04 18° 298° (WNW) 10:54:00 435.000/436.395/437.385
POLYITAN 1 30 Jun 10:48:25 10:50:39 14° 61° (ENE) 10:52:53 437.675
QB50P2 30 Jun 10:58:41 11:01:41 19° 63° (ENE) 11:04:42 145.880/145.840
M-CUBED/EXP-1 PRIME 30 Jun 10:59:16 10:59:43 10° 264° (W) 11:00:11 437.505
UNISAT 6 30 Jun 11:02:28 11:06:40 34° 264° (W) 11:10:57 437.425
AAUSAT CUBESAT 2 30 Jun 11:04:17 11:05:11 11° 300° (WNW) 11:06:05 437.432
HO-68 30 Jun 11:06:54 11:11:00 16° 311° (NW) 11:15:06 435.675
YUBILEINY 30 Jun 11:07:42 11:14:13 24° 282° (WNW) 11:20:44 435.215
AIST 2D 30 Jun 11:15:45 11:19:07 44° 73° (ENE) 11:22:31 435.315
EO-88 30 Jun 11:19:31 11:23:10 76° 286° (WNW) 11:26:48 145.990 - 145.960
EO-79 30 Jun 11:20:27 11:24:05 28° 67° (ENE) 11:27:45 145.935-145.965
LO-87 30 Jun 11:25:26 11:27:47 16° 92° (E) 11:30:09 145.935 - 145.965
DUCHIFAT 1 30 Jun 11:27:58 11:31:33 27° 67° (ENE) 11:35:09 145.980
AO-73 30 Jun 11:29:35 11:31:29 13° 301° (WNW) 11:33:23 145.935
PCSat 30 Jun 11:34:55 11:40:16 63° 117° (ESE) 11:45:39 145.827
NANOSAT C BR1 30 Jun 11:39:03 11:43:00 39° 70° (ENE) 11:46:59 145.865
DELFI C3 30 Jun 11:39:57 11:43:28 32° 291° (WNW) 11:47:00 145.870
ESTCUBE 1 30 Jun 11:44:42 11:47:52 19° 92° (E) 11:51:01 437.505/2401.250
ISS 30 Jun 11:53:20 11:56:23 34° 16° (NNE) 11:59:26 437.550
TIGRISAT 30 Jun 11:58:36 12:00:03 11° 273° (W) 12:01:31 435.000
FO-29 30 Jun 12:04:39 12:07:56 14° 278° (W) 12:11:24 435.910
Tancredo 1 30 Jun 12:05:55 12:08:55 57° 25° (NNE) 12:11:55 437.200
Oscar 19 30 Jun 12:07:16 12:09:35 13° 56° (NE) 12:11:54 437.125/150
BUGSAT 1 30 Jun 12:16:16 12:19:49 27° 67° (ENE) 12:23:25 437.445
POLYITAN 1 30 Jun 12:21:38 12:25:53 67° 258° (WSW) 12:30:12 437.675
